Wind_Speed
69 70 71 68 69 66 64 69 70 64 57 56 58 56 52 56 60 58 61 64 65 64 64 68 71 72 74 76 75 55 42 34 23 15 12 8 13 21 30 32 31 29 28 31 36 44 40
75 77 72 72 72 68 64 65 71 67 59 59 60 60 52 56 57 59 63 64 62 61 64 68 67 71 71 73 73 53 44 34 21 13 10 10 22 19 28 31 27 28 31 31 35 37 43
73 76 77 71 65 69 67 65 64 64 60 56 58 59 53 57 61 61 64 64 62 63 64 66 64 72 73 74 70 51 41 33 19 10 8 11 23 23 25 24 21 23 30 31 27 35 33
75 72 73 71 68 68 68 66 64 59 58 60 66 61 57 60 63 63 66 64 64 61 62 63 65 71 72 70 68 49 39 31 15 15 9 13 19 28 30 33 31 28 35 29 31 30 34
79 78 76 72 70 69 70 66 66 60 63 68 70 66 63 63 64 67 67 66 64 57 59 63 64 70 69 66 67 46 37 29 11 9 6 14 19 26 27 28 31 39 34 35 37 34 32
80 80 79 76 74 73 72 67 64 61 63 68 68 65 65 63 64 67 67 63 57 57 59 61 64 68 66 63 60 42 36 27 13 11 6 15 21 23 27 35 34 30 33 34 43 30 28
88 79 82 80 78 77 73 70 67 68 65 63 65 64 65 64 65 68 65 62 57 56 59 62 63 65 63 60 57 39 31 24 17 10 8 16 21 24 26 31 34 33 35 39 30 25 22
96 93 86 85 81 76 75 74 72 69 67 65 68 65 63 67 66 66 65 59 59 56 60 59 61 64 60 58 58 39 30 23 16 13 12 19 23 26 32 33 34 32 25 24 23 23 22
106 93 85 88 87 81 73 73 74 76 74 73 69 68 67 66 68 67 65 61 58 57 57 59 60 61 57 56 58 41 30 21 15 16 16 18 22 27 35 31 34 28 26 22 26 26 28
99 94 87 87 91 86 83 78 76 75 72 72 70 69 70 68 70 69 63 63 55 57 54 58 59 60 58 56 54 40 29 20 14 20 19 18 21 24 30 34 27 26 23 21 23 24 22
98 100 95 91 90 91 85 84 83 79 77 73 71 71 71 67 69 67 64 60 56 57 55 57 60 58 55 54 47 42 29 20 15 15 21 19 18 19 25 28 24 24 25 24 23 25 25
102 105 104 93 93 92 90 84 83 81 81 78 75 76 73 74 73 66 64 61 58 56 56 53 56 55 54 53 53 41 29 21 14 13 15 15 17 19 21 26 25 25 26 28 23 23 24
108 109 109 101 100 97 94 92 87 85 81 77 75 75 75 74 73 67 67 65 58 52 56 53 52 52 52 54 52 46 29 22 19 15 20 18 19 21 22 22 26 26 30 27 26 28 28
108 114 114 112 104 104 99 95 94 86 86 83 75 75 73 76 72 73 70 68 56 53 57 53 52 51 51 50 51 45 28 22 23 17 22 22 19 19 20 26 25 30 26 23 27 27 28
115 112 115 116 111 108 106 100 97 95 90 89 85 78 75 79 76 77 72 64 51 56 57 53 53 52 50 49 48 43 28 23 23 22 20 24 25 24 26 25 28 28 24 27 28 25 27
120 119 114 115 112 113 110 109 103 99 95 93 90 84 80 85 77 78 71 54 54 59 55 53 53 52 50 47 42 41 30 23 22 22 23 21 28 26 29 26 27 27 29 28 27 26 24
120 121 118 118 113 113 116 114 110 103 97 94 90 87 88 90 85 80 66 54 57 62 56 53 52 52 51 48 39 39 31 26 21 19 23 27 30 32 32 26 30 34 31 28 24 23 23
108 115 117 120 122 115 116 116 112 107 103 100 93 87 90 91 86 73 62 55 61 61 50 51 53 51 51 52 40 35 29 28 19 18 23 24 27 30 28 30 29 31 29 23 23 24 24
94 102 111 117 122 126 119 118 115 111 107 106 98 90 94 95 82 69 59 59 61 57 52 52 54 55 53 52 39 33 29 27 25 19 21 22 25 25 24 27 25 25 22 24 24 25 28
86 86 96 107 117 121 124 121 118 118 113 109 105 100 100 95 78 70 62 58 61 55 53 53 56 56 55 51 41 34 31 31 22 25 24 25 26 24 25 26 24 24 25 27 27 30 26
77 77 84 91 104 114 120 122 121 120 115 115 109 100 97 89 78 67 61 61 60 56 53 57 58 58 56 48 36 32 30 31 26 24 23 26 28 27 27 28 25 26 26 27 30 32 26
67 68 78 79 86 100 113 120 119 116 114 116 109 99 94 91 80 77 71 67 61 58 58 59 61 61 56 48 40 36 30 32 27 24 24 25 25 25 27 26 24 27 29 32 34 29 29
59 62 70 72 79 86 96 113 116 115 118 110 102 95 94 89 84 78 67 65 63 62 61 61 62 62 55 44 36 32 33 35 26 26 25 26 28 27 29 29 31 30 36 31 29 28 28
54 63 61 62 73 79 85 94 103 107 107 100 93 87 87 83 83 75 74 73 66 62 60 62 63 61 55 44 38 34 36 34 25 21 22 29 29 28 30 29 30 36 32 31 31 29 30
50 51 52 57 67 73 76 82 88 89 91 96 100 93 92 91 83 79 76 70 70 64 66 62 60 60 56 50 39 36 36 37 33 31 30 33 28 28 30 30 32 32 35 32 31 33 35
46 45 49 54 59 65 70 74 73 77 77 88 92 99 91 91 79 78 79 74 68 65 66 59 58 58 51 45 40 39 40 41 37 39 37 32 27 29 31 31 32 32 36 36 35 34 40
42 44 47 53 57 62 67 68 66 64 63 75 81 83 88 84 80 77 70 68 71 68 62 59 49 48 47 40 38 39 42 42 41 40 36 32 30 30 29 32 34 34 38 37 38 39 42
42 44 48 52 56 62 65 65 61 57 58 61 62 73 78 77 73 72 73 69 68 64 56 53 47 56 44 39 40 44 46 44 42 41 39 36 33 30 31 34 38 39 40 41 42 43 45
41 43 49 54 56 57 62 62 58 57 55 52 53 57 64 65 71 70 69 69 61 52 44 46 49 50 47 43 45 45 48 44 43 41 41 39 36 33 32 34 37 38 39 42 42 45 48
Wind_Direction
252 253 256 257 256 260 265 269 267 265 265 270 273 277 283 291 295 297 300 307 312 315 318 322 327 331 337 341 339 335 336 332 327 317 304 242 198 194 193 196 194 203 196 190 187 184 183
255 259 258 261 257 260 260 267 269 264 267 267 272 274 281 286 289 293 298 307 311 315 317 322 327 331 336 340 339 337 337 334 328 323 307 207 198 188 191 195 199 187 184 184 181 186 194
258 257 258 258 255 256 260 264 269 263 263 263 270 273 279 282 286 289 297 302 309 313 317 322 326 329 332 339 339 337 336 336 324 308 293 200 194 189 189 192 192 192 180 184 193 196 197
254 257 257 255 257 255 257 260 264 261 264 265 270 272 275 280 283 289 295 299 305 308 315 320 323 327 331 340 340 336 335 336 331 311 302 199 192 185 188 184 185 192 185 181 194 200 201
254 257 256 254 255 255 255 258 260 261 262 267 271 275 275 275 282 285 292 296 303 307 314 318 321 325 331 342 343 335 332 335 323 290 250 190 185 190 198 193 182 174 183 199 201 201 214
254 254 253 251 252 253 252 252 253 259 263 268 272 273 275 274 277 284 290 294 301 306 312 317 319 323 328 342 342 334 330 332 318 301 214 186 187 189 187 180 182 194 196 205 199 214 208
260 255 252 251 251 249 250 251 251 253 258 262 264 270 270 270 276 282 288 292 298 304 310 315 318 321 325 340 343 332 328 330 322 282 230 200 194 188 189 194 192 198 202 203 206 211 212
257 259 254 248 248 250 248 250 251 250 255 257 262 263 266 269 276 281 285 291 293 299 310 313 315 319 324 339 344 330 324 330 313 282 232 201 195 200 197 203 195 198 202 216 225 223 223
253 251 247 246 246 244 243 246 249 252 255 256 258 261 263 268 273 277 282 286 291 299 306 311 312 316 322 336 342 331 317 324 304 264 241 222 215 210 206 203 201 200 206 218 225 225 228
245 242 243 242 244 244 240 242 246 245 247 251 251 255 259 265 271 273 277 279 292 295 303 307 309 315 321 334 338 331 311 312 304 271 259 253 234 232 221 210 207 204 213 213 233 238 240
241 238 241 238 240 243 244 244 244 247 246 247 251 256 260 264 267 270 273 280 285 290 298 302 307 310 316 330 336 331 309 304 302 278 264 269 257 259 241 220 214 213 219 223 233 239 239
235 237 238 238 236 239 243 243 245 247 250 250 251 254 257 262 263 267 270 274 279 288 291 298 303 307 313 327 332 327 309 294 292 270 260 255 251 238 233 224 227 220 227 235 235 248 244
233 232 236 237 236 235 239 241 242 244 247 249 251 254 256 259 260 262 264 269 277 289 289 290 299 300 310 320 329 326 305 289 275 256 248 248 243 234 223 224 230 233 236 234 244 252 250
231 231 232 235 234 234 236 239 242 240 244 246 248 250 254 256 256 259 264 267 275 283 285 289 294 299 306 318 325 321 298 281 269 254 248 262 262 249 235 234 233 237 246 245 248 251 257
230 228 231 233 232 231 234 236 239 240 242 245 245 248 251 253 254 257 261 267 275 279 285 285 288 295 304 316 323 318 295 279 269 251 241 253 258 246 243 238 236 241 242 251 254 254 263
232 228 226 230 231 227 229 233 235 238 240 243 244 245 247 249 252 256 260 269 276 278 278 280 288 292 302 311 320 315 292 283 270 256 249 234 250 247 245 238 238 245 250 252 255 261 258
237 234 228 226 227 226 225 229 232 234 235 238 240 242 245 248 250 253 260 267 267 275 274 278 283 289 297 307 314 310 288 283 270 259 248 240 243 246 252 268 245 251 253 254 252 243 244
236 236 236 228 228 227 225 225 226 230 232 234 237 238 242 246 248 251 253 256 261 268 270 276 281 283 295 303 307 299 282 282 273 263 256 251 254 254 254 262 247 252 250 249 242 246 242
237 235 234 233 228 228 224 221 223 226 229 232 234 234 239 242 245 252 252 255 258 262 268 272 276 283 291 298 300 287 274 269 269 268 256 257 249 243 248 249 245 241 242 243 241 239 241
236 233 233 231 231 229 229 222 221 224 227 229 229 229 234 240 242 246 247 251 253 260 264 268 274 280 287 291 297 282 272 268 256 256 255 252 248 246 245 249 243 247 245 241 236 242 244
234 231 230 228 228 229 229 227 222 222 224 226 226 228 233 236 238 242 244 245 249 255 260 264 269 275 282 291 289 276 263 267 260 260 257 253 252 249 249 250 248 246 244 240 242 244 233
231 228 229 226 226 227 226 230 228 224 222 223 223 227 230 231 236 239 238 239 245 252 256 262 267 274 278 284 289 282 260 259 254 255 255 254 252 249 250 254 251 250 248 243 237 237 235
224 224 224 219 219 221 223 226 229 227 226 226 222 220 225 227 230 234 236 239 246 251 253 259 265 270 276 282 285 268 250 255 251 253 252 250 249 250 252 254 252 250 248 245 243 242 247
217 218 218 214 216 217 219 222 227 227 229 223 216 220 224 227 230 230 237 239 244 251 254 259 265 271 276 280 274 254 248 247 241 245 244 251 250 250 253 253 247 247 243 242 245 253 258
213 213 212 209 211 212 214 216 222 226 225 221 215 216 219 225 228 229 234 240 242 244 249 253 263 268 274 278 264 245 246 242 230 218 238 251 255 255 257 253 247 241 243 246 253 259 265
205 203 203 205 206 206 205 210 215 218 218 219 219 217 221 225 227 232 235 240 244 245 252 255 261 265 268 266 250 236 240 241 239 235 238 248 255 258 256 249 243 242 249 253 259 263 266
195 194 196 198 197 197 198 201 205 208 209 215 217 217 223 229 230 233 239 245 243 245 249 251 258 257 259 249 238 236 239 236 236 237 241 246 252 257 255 245 243 247 254 260 264 266 270
184 186 189 190 190 190 190 192 192 193 196 203 210 217 221 225 228 232 235 239 242 242 244 249 236 244 248 242 235 232 237 235 237 237 240 245 247 252 251 249 249 250 258 263 267 271 272
177 179 183 184 185 182 182 183 177 175 182 189 201 209 216 221 230 237 241 242 240 236 231 230 230 232 231 231 230 232 235 235 238 239 241 245 245 248 251 253 255 258 262 267 271 272 273
Height
10692 10696 10699 10702 10704 10707 10710 10712 10714 10717 10719 10719 10718 10718 10717 10715 10712 10710 10707 10705 10700 10696 10690 10682 10673 10665 10655 10641 10628 10618 10608 10600 10595 10594 10593 10592 10593 10598 10602 10610 10615 10621 10629 10635 10643 10646 10651
10676 10681 10685 10688 10691 10694 10697 10699 10701 10705 10708 10708 10708 10708 10707 10705 10703 10701 10699 10697 10694 10690 10685 10677 10669 10660 10650 10639 10623 10614 10606 10599 10594 10592 10593 10592 10596 10601 10606 10612 10618 10622 10629 10634 10639 10647 10650
10660 10664 10668 10672 10676 10680 10682 10687 10689 10693 10696 10696 10697 10698 10698 10697 10695 10694 10692 10689 10688 10684 10678 10672 10664 10656 10646 10635 10622 10612 10605 10598 10593 10592 10592 10592 10597 10602 10609 10615 10622 10627 10630 10632 10638 10645 10650
10644 10647 10652 10657 10661 10665 10669 10672 10675 10681 10684 10685 10687 10688 10688 10687 10684 10685 10683 10682 10681 10678 10672 10667 10660 10653 10644 10633 10620 10610 10603 10598 10593 10594 10592 10592 10595 10600 10606 10608 10614 10623 10628 10633 10637 10643 10647
10625 10630 10636 10641 10645 10650 10655 10659 10662 10667 10673 10674 10676 10677 10678 10676 10675 10675 10674 10674 10673 10670 10667 10662 10656 10649 10642 10632 10619 10610 10604 10598 10594 10595 10594 10595 10597 10602 10606 10611 10615 10619 10624 10628 10634 10640 10646
10608 10611 10618 10624 10629 10634 10640 10643 10648 10652 10658 10661 10664 10666 10666 10666 10665 10666 10665 10666 10665 10663 10660 10656 10651 10646 10639 10630 10619 10610 10604 10598 10594 10594 10594 10596 10598 10602 10606 10611 10618 10621 10621 10624 10631 10639 10645
10587 10593 10600 10606 10612 10618 10623 10628 10634 10639 10643 10647 10651 10653 10654 10654 10654 10655 10656 10659 10658 10656 10653 10650 10646 10641 10636 10628 10618 10609 10604 10599 10595 10596 10596 10597 10599 10603 10606 10609 10612 10615 10619 10622 10630 10637 10643
10561 10570 10578 10588 10595 10602 10607 10612 10618 10623 10628 10634 10637 10641 10643 10643 10644 10645 10645 10650 10648 10651 10648 10643 10640 10636 10630 10624 10616 10607 10603 10599 10597 10597 10596 10597 10598 10601 10603 10604 10610 10616 10624 10628 10632 10635 10638
10535 10546 10555 10565 10574 10583 10591 10596 10602 10609 10615 10622 10626 10629 10631 10633 10634 10634 10637 10640 10642 10642 10643 10637 10632 10630 10626 10619 10612 10605 10603 10598 10597 10598 10596 10597 10599 10599 10601 10607 10612 10619 10622 10625 10628 10631 10633
10506 10518 10530 10541 10552 10561 10570 10579 10584 10592 10601 10608 10612 10615 10618 10623 10623 10623 10628 10627 10636 10633 10636 10631 10626 10623 10619 10614 10609 10603 10602 10598 10596 10596 10596 10597 10598 10600 10603 10606 10614 10618 10621 10625 10625 10629 10632
10477 10490 10503 10516 10528 10538 10548 10558 10566 10574 10583 10592 10597 10600 10604 10612 10609 10614 10615 10623 10624 10624 10629 10625 10618 10618 10615 10610 10605 10599 10599 10595 10594 10595 10595 10597 10598 10600 10603 10610 10611 10616 10619 10622 10622 10625 10627
10442 10460 10476 10489 10503 10516 10526 10536 10547 10555 10564 10575 10582 10585 10593 10596 10596 10606 10607 10610 10613 10618 10618 10621 10616 10612 10609 10605 10601 10596 10595 10592 10591 10592 10592 10594 10596 10596 10599 10604 10608 10610 10612 10615 10618 10618 10619
10410 10426 10445 10461 10477 10491 10503 10514 10525 10536 10545 10556 10566 10570 10577 10583 10585 10593 10594 10598 10606 10610 10606 10611 10613 10608 10606 10600 10597 10593 10591 10588 10588 10588 10588 10591 10592 10594 10595 10599 10602 10605 10606 10610 10611 10612 10611
10377 10393 10411 10431 10451 10465 10479 10492 10502 10516 10526 10538 10547 10556 10562 10565 10575 10575 10582 10588 10603 10597 10593 10602 10603 10602 10599 10597 10593 10589 10587 10584 10585 10584 10584 10587 10590 10592 10594 10595 10599 10599 10602 10606 10606 10607 10606
10344 10361 10380 10397 10417 10438 10455 10469 10480 10493 10507 10516 10529 10541 10551 10546 10558 10560 10570 10583 10593 10583 10586 10590 10591 10592 10592 10591 10589 10584 10582 10580 10580 10580 10581 10583 10588 10590 10590 10593 10593 10594 10598 10598 10600 10603 10601
10306 10327 10349 10365 10386 10406 10427 10444 10457 10471 10484 10498 10512 10524 10532 10526 10543 10547 10560 10580 10579 10572 10579 10581 10582 10583 10583 10584 10584 10580 10577 10575 10574 10575 10578 10580 10581 10583 10584 10586 10588 10591 10593 10594 10596 10597 10596
10275 10292 10319 10335 10354 10376 10397 10417 10433 10449 10463 10476 10490 10504 10509 10512 10526 10537 10562 10570 10560 10561 10569 10572 10574 10575 10576 10577 10576 10575 10572 10571 10569 10570 10572 10573 10575 10578 10581 10582 10584 10586 10587 10589 10591 10591 10592
10244 10265 10284 10306 10325 10344 10367 10390 10407 10423 10440 10454 10474 10490 10483 10496 10510 10532 10552 10555 10547 10552 10561 10563 10564 10567 10569 10568 10569 10569 10567 10566 10565 10566 10565 10569 10572 10574 10576 10576 10578 10581 10582 10584 10585 10587 10588
10215 10234 10255 10275 10298 10314 10337 10361 10382 10396 10420 10435 10458 10471 10465 10474 10499 10524 10536 10541 10538 10544 10551 10554 10557 10558 10559 10561 10564 10563 10561 10563 10561 10563 10562 10564 10565 10568 10571 10571 10574 10576 10579 10579 10581 10581 10582
10186 10208 10229 10251 10270 10288 10309 10334 10355 10374 10396 10413 10429 10443 10451 10466 10497 10509 10522 10525 10528 10535 10542 10544 10546 10549 10552 10553 10555 10558 10555 10556 10560 10559 10560 10562 10563 10564 10566 10567 10570 10572 10574 10575 10577 10576 10579
10165 10184 10201 10218 10241 10266 10284 10308 10331 10348 10369 10386 10407 10433 10450 10468 10486 10499 10509 10513 10517 10527 10532 10533 10537 10540 10543 10547 10549 10550 10552 10551 10553 10554 10556 10559 10559 10560 10561 10562 10565 10567 10570 10571 10572 10572 10575
10145 10165 10180 10198 10219 10244 10266 10275 10300 10328 10344 10357 10399 10423 10438 10451 10466 10481 10495 10503 10507 10515 10521 10524 10527 10531 10536 10541 10543 10544 10546 10546 10547 10548 10549 10552 10554 10555 10556 10558 10562 10562 10563 10563 10564 10568 10570
10129 10146 10158 10177 10197 10218 10240 10257 10279 10304 10318 10348 10394 10410 10419 10433 10448 10467 10488 10492 10497 10503 10510 10513 10517 10520 10527 10535 10536 10536 10537 10538 10543 10543 10545 10547 10548 10551 10552 10554 10555 10557 10553 10559 10562 10563 10564
10115 10126 10143 10163 10181 10200 10220 10242 10261 10279 10307 10354 10388 10393 10408 10422 10439 10461 10463 10473 10484 10495 10498 10501 10506 10511 10520 10526 10525 10528 10530 10535 10538 10537 10539 10541 10544 10546 10546 10548 10550 10547 10552 10554 10555 10557 10558
10103 10118 10134 10150 10167 10184 10206 10229 10245 10264 10305 10341 10361 10375 10390 10408 10425 10436 10452 10466 10467 10480 10484 10490 10500 10503 10511 10515 10517 10520 10524 10528 10531 10532 10532 10534 10538 10539 10541 10541 10542 10544 10545 10548 10550 10551 10551
10096 10110 10124 10139 10156 10175 10197 10216 10236 10260 10291 10322 10342 10363 10380 10395 10424 10430 10436 10446 10457 10468 10475 10488 10493 10494 10501 10504 10508 10512 10516 10520 10523 10526 10528 10530 10532 10534 10534 10534 10536 10539 10538 10540 10543 10546 10542
10090 10103 10117 10132 10148 10168 10188 10209 10230 10256 10286 10305 10331 10355 10375 10391 10406 10416 10431 10445 10446 10455 10469 10477 10483 10483 10486 10493 10498 10503 10509 10515 10516 10519 10522 10525 10526 10528 10528 10529 10531 10532 10530 10533 10534 10536 10534
10087 10099 10112 10127 10144 10162 10182 10205 10228 10255 10281 10301 10327 10346 10366 10382 10393 10407 10414 10423 10431 10448 10465 10474 10471 10475 10480 10484 10491 10495 10500 10505 10509 10513 10516 10518 10519 10520 10520 10522 10524 10525 10523 10525 10525 10525 10522
10087 10099 10111 10126 10143 10163 10183 10205 10231 10257 10279 10302 10323 10342 10358 10376 10390 10397 10408 10412 10424 10442 10453 10458 10463 10466 10467 10473 10481 10486 10490 10496 10499 10503 10507 10509 10510 10511 10513 10513 10514 10515 10516 10515 10516 10512 10510